This is the latest recevied weather packets stored in our database for station/object EB2GLU-13. If no packets are shown the sender has not sent any weather packets the latest 10 day(s).
| Time | Temp. | Humidity | Pressure | Rain* | Wind** | Luminosity | Snow |
|---|---|---|---|---|---|---|---|
| 1787611972 | 20.56° C | 82% | 1003.5 hPa | 0 mm | - | - | - |
| 1787611222 | 20.56° C | 83% | 1003.4 hPa | 0 mm | - | - | - |
| 1787610471 | 20.56° C | 83% | 1003.5 hPa | 0 mm | - | - | - |
| 1787609721 | 20.56° C | 83% | 1003.4 hPa | 0 mm | - | - | - |
| 1787608974 | 20.56° C | 83% | 1003.5 hPa | 0 mm | - | - | - |
| 1787608221 | 20.56° C | 83% | 1003.4 hPa | 0 mm | - | - | - |
| 1787607471 | 20.56° C | 83% | 1003.1 hPa | 0 mm | - | - | - |
| 1787606722 | 21.11° C | 81% | 1003.6 hPa | 0 mm | - | - | - |
| 1787605972 | 21.11° C | 80% | 1003.4 hPa | 0 mm | - | - | - |
| 1787605221 | 21.11° C | 79% | 1003.4 hPa | 0 mm | - | - | - |
| 1787604472 | 21.67° C | 79% | 1003.4 hPa | 0 mm | - | - | - |
| 1787603722 | 22.22° C | 78% | 1003.1 hPa | 0 mm | - | - | - |
| 1787602971 | 21.67° C | 79% | 1003.3 hPa | 0 mm | - | - | - |
| 1787602221 | 22.22° C | 78% | 1003 hPa | 0 mm | - | - | - |
| 1787601471 | 22.22° C | 77% | 1002.8 hPa | 0 mm | - | - | - |
| 1787600721 | 22.78° C | 77% | 1002.6 hPa | 0 mm | - | - | - |
| 1787599971 | 23.33° C | 74% | 1002.5 hPa | 0 mm | - | - | - |
| 1787599221 | 24.44° C | 72% | 1002.3 hPa | 0 mm | - | - | - |
| 1787598471 | 24.44° C | 72% | 1002.4 hPa | 0 mm | - | - | - |
| 1787597721 | 25° C | 71% | 1002.3 hPa | 0 mm | - | - | - |
| 1787596971 | 25° C | 70% | 1002.1 hPa | 0 mm | - | - | - |
| 1787596221 | 26.11° C | 68% | 1001.9 hPa | 0 mm | - | - | - |
| 1787595471 | 26.11° C | 67% | 1002.2 hPa | 0 mm | - | - | - |
| 1787594721 | 26.67° C | 65% | 1001.9 hPa | 0 mm | - | - | - |
| 1787593971 | 27.22° C | 63% | 1001.9 hPa | 0 mm | - | - | - |
* Rain latest hour (hover to see other rain measurements)
** Current wind speed in m/s (hover to see current wind gust speed)